User: anonymous   Login
Location: Caltech
(34.1382°N, 118.1253°W)
Time: 03:34:01
(UTC-07:00)
Language:

Cosmos 1408 Rocket - Orbit

View from above orbital plane
View from above orbital plane
View from above satellite
View from above satellite

Ground track
Ground track

The orbit data is extracted from the following two-line orbital elements,

1 13553U 82092B   16268.04339834  .00000110  00000-0  10202-4 0  9996
2 13553  82.5672 122.0460 0020834 200.4649 271.8007 14.84078051837568
Epoch (UTC): 24 September 2016 01:02:29
Eccentricity: 0.0020834
inclination: 82.5672°
perigee height: 602 km
apogee height: 631 km
right ascension of ascending node: 122.0460°
argument of perigee: 200.4649°
revolutions per day: 14.84078051
mean anomaly at epoch: 271.8007°
orbit number at epoch: 83756

The dashed part of the orbit path shows where the satellite is in the earth's shadow,  

DLR